Location: Peebles
(55.6412°N, 3.1714°W)
Time: 20:32:14
(UTC+01:00)

deb AGENA D - Pass Details

Date: 09 July 2022
Orbit: 951 x 1019 km, 99.8° (Epoch: 17 August)

Event Time Altitude Azimuth Distance (km) Brightness Sun altitude
Exits shadow 02:13:33 12° 171° (S) 2,691 ? -11.1°
Maximum altitude 02:19:33 70° 254° (WSW) 1,081 ? -10.9°
Drops below altitude 10° 02:25:52 10° 339° (NNW) 2,803 ? -10.7°
Sets 02:28:23 0° 342° (NNW) 3,750 ? -10.6°
